Sakura — JG5711 — position and weather

sailwx.info

Track history (hours):
 
Tides and Currents Weather Stations Pressure Air Temp Water Temp Dewpoint Dewpoint Depression Visibility Wind Speed Wind Dir Waves Ship Positions

Sakura

Last reported at 2014-Oct-25 08:22 UTC. Time now 2014-Oct-26 02:00 UTC.
Position N 35°27' E 139°39'.

Length 32 m; draft 3.6 m.

Type: Tug. MMSI: 431101178.

Date/timePositionNaut miles runAvg speedWind from/ knotsBaromVisibWave heightAir tempDewpointWater temp
2014-Oct-25 08:22N 35°27' E 139°39'2 2.6
2014-Oct-25 07:33N 35°26' E 139°41'3 2.7
2014-Oct-25 06:33N 35°29' E 139°40'2 1.9
2014-Oct-25 05:33N 35°27' E 139°39'0 0.0
2014-Oct-25 04:33N 35°27' E 139°39'2 2.4
2014-Oct-25 03:33N 35°27' E 139°42'5 4.9
2014-Oct-25 02:33N 35°29' E 139°47'1 1.4
2014-Oct-25 01:33N 35°28' E 139°47'3 3.5
2014-Oct-25 00:34N 35°27' E 139°42'0 0.0
2014-Oct-24 23:34N 35°27' E 139°42'2 1.8
2014-Oct-24 22:33N 35°27' E 139°40'1 1.3
2014-Oct-24 21:33N 35°27' E 139°39'0 0.0
2014-Oct-24 20:33N 35°27' E 139°39'1 0.1
2014-Oct-24 11:33N 35°28' E 139°39'6 6.2
2014-Oct-24 10:32N 35°30' E 139°46'3 3.1
2014-Oct-24 09:33N 35°29' E 139°43'0 0.4
2014-Oct-24 08:33N 35°29' E 139°43'0 0.0
2014-Oct-24 07:33N 35°29' E 139°43'3 2.8
2014-Oct-24 06:33N 35°28' E 139°41'0 0.0
2014-Oct-24 05:33N 35°28' E 139°41'0 0.0
2014-Oct-24 04:33N 35°28' E 139°41'0 0.0
2014-Oct-24 03:33N 35°28' E 139°41'0 0.0
2014-Oct-24 02:33N 35°28' E 139°41'0 0.0
2014-Oct-24 01:33N 35°28' E 139°41'0 0.0
2014-Oct-24 00:33N 35°28' E 139°41'1 0.7
2014-Oct-23 23:33N 35°27' E 139°40'1 1.5
2014-Oct-23 22:33N 35°28' E 139°41'2 1.8
2014-Oct-23 21:33N 35°27' E 139°43'3 3.5
2014-Oct-23 20:33N 35°27' E 139°39'0 0.0
2014-Oct-23 07:34N 35°27' E 139°39'0 0.0
2014-Oct-23 06:34N 35°27' E 139°39'2 2.0
2014-Oct-23 05:34N 35°27' E 139°41'2 2.0
2014-Oct-23 04:33N 35°27' E 139°39'0 0.0
2014-Oct-23 03:33N 35°27' E 139°39'0 0.0
2014-Oct-23 02:33N 35°27' E 139°39'0 0.0
2014-Oct-23 01:33N 35°27' E 139°39'0 0.0
2014-Oct-23 00:33N 35°27' E 139°39'0 0.0
2014-Oct-22 23:34N 35°27' E 139°39'0 0.0
2014-Oct-22 22:34N 35°27' E 139°39'0 0.0
2014-Oct-21 23:29N 35°27' E 139°39'2 2.5
2014-Oct-21 22:33N 35°28' E 139°41'2 1.7
2014-Oct-21 21:34N 35°27' E 139°43'0 0.0
2014-Oct-21 20:34N 35°27' E 139°43'0 0.0
2014-Oct-21 19:34N 35°27' E 139°43'2 1.6
2014-Oct-21 18:33N 35°26' E 139°41'1 1.3
2014-Oct-21 17:33N 35°27' E 139°42'0 0.0
2014-Oct-21 16:33N 35°27' E 139°42'0 0.0
2014-Oct-21 15:33N 35°27' E 139°42'0 0.0
2014-Oct-21 14:33N 35°27' E 139°42'0 0.0
2014-Oct-21 13:33N 35°27' E 139°42'0 0.0
2014-Oct-21 12:33N 35°27' E 139°42'1 1.1
2014-Oct-21 11:33N 35°26' E 139°41'0 0.5
2014-Oct-21 10:33N 35°27' E 139°41'2 1.5
2014-Oct-21 09:34N 35°27' E 139°39'2 2.4
2014-Oct-21 08:34N 35°26' E 139°42'1 1.0
2014-Oct-21 07:34N 35°26' E 139°41'2 1.5
2014-Oct-21 06:33N 35°27' E 139°41'1 1.2
2014-Oct-21 05:33N 35°27' E 139°42'3 3.3
2014-Oct-21 04:33N 35°24' E 139°42'2 1.8
2014-Oct-21 03:33N 35°24' E 139°39'3 3.0
2014-Oct-21 02:33N 35°27' E 139°39'0 0.0
2014-Oct-21 01:33N 35°27' E 139°39'0 0.0
2014-Oct-21 00:33N 35°27' E 139°39'0 0.0
2014-Oct-20 23:33N 35°27' E 139°39'0 0.0
2014-Oct-20 22:33N 35°27' E 139°39'0 0.0
2014-Oct-20 21:33N 35°27' E 139°39'0 0.0
2014-Oct-20 07:11N 35°27' E 139°39'0 0.0
2014-Oct-20 06:33N 35°27' E 139°39'1 1.3
2014-Oct-20 05:33N 35°27' E 139°40'1 1.3
2014-Oct-20 04:33N 35°27' E 139°39'0 0.0
2014-Oct-20 03:33N 35°27' E 139°39'1 0.7
2014-Oct-20 02:33N 35°27' E 139°39'7 6.8
2014-Oct-20 01:33N 35°31' E 139°46'1 1.2
2014-Oct-20 00:33N 35°30' E 139°47'1 1.0
2014-Oct-19 23:33N 35°29' E 139°47'1 0.6
2014-Oct-19 22:33N 35°30' E 139°46'2 1.8
2014-Oct-19 21:33N 35°28' E 139°46'6 5.9
2014-Oct-19 20:33N 35°27' E 139°39'0 0.0
2014-Oct-19 07:33N 35°27' E 139°39'0 0.0
2014-Oct-19 06:33N 35°27' E 139°39'0 0.0
2014-Oct-19 05:34N 35°27' E 139°39'2 1.5
2014-Oct-19 04:34N 35°27' E 139°40'2 1.5
2014-Oct-19 03:34N 35°27' E 139°39'0 0.0
2014-Oct-19 02:34N 35°27' E 139°39'0 0.0
2014-Oct-19 01:34N 35°27' E 139°39'0 0.0
2014-Oct-19 00:34N 35°27' E 139°39'2 1.6
2014-Oct-18 23:34N 35°27' E 139°40'2 1.9
2014-Oct-18 22:34N 35°26' E 139°43'2 2.3
2014-Oct-18 21:34N 35°28' E 139°41'1 0.6
2014-Oct-18 20:34N 35°27' E 139°41'2 1.9
2014-Oct-18 19:34N 35°27' E 139°39'0 0.0
2014-Oct-18 08:22N 35°27' E 139°39'2 2.0
2014-Oct-18 07:33N 35°26' E 139°40'1 1.1
2014-Oct-18 06:34N 35°28' E 139°40'0 0.0
2014-Oct-18 05:34N 35°28' E 139°40'0 0.0
2014-Oct-18 04:34N 35°28' E 139°40'0 0.0
2014-Oct-18 03:33N 35°28' E 139°40'2 1.5
2014-Oct-18 02:34N 35°26' E 139°41'2 1.5
2014-Oct-18 01:34N 35°28' E 139°40'0 0.0
2014-Oct-18 00:34N 35°28' E 139°40'0 0.0
2014-Oct-17 23:33N 35°28' E 139°40'2 1.5
2014-Oct-17 22:34N 35°27' E 139°42'3 2.8
2014-Oct-17 21:34N 35°27' E 139°39'3 0.2
2014-Oct-17 07:33N 35°27' E 139°42'1 0.9
2014-Oct-17 06:33N 35°26' E 139°41'1 1.3
2014-Oct-17 05:33N 35°27' E 139°42'1 1.1
2014-Oct-17 04:33N 35°26' E 139°41'2 0.6
2014-Oct-17 01:14N 35°27' E 139°39'3 3.8
2014-Oct-17 00:33N 35°28' E 139°41'3 2.6
2014-Oct-16 23:33N 35°30' E 139°44'3 3.3
2014-Oct-16 22:33N 35°27' E 139°43'3 3.3
2014-Oct-16 21:33N 35°27' E 139°39'0 0.0
2014-Oct-16 20:33N 35°27' E 139°39'3 0.3
2014-Oct-16 12:33N 35°26' E 139°41'1 0.7
2014-Oct-16 11:33N 35°26' E 139°42'0 0.2
2014-Oct-16 10:34N 35°26' E 139°42'2 1.7
2014-Oct-16 09:33N 35°24' E 139°41'1 0.5
2014-Oct-16 08:34N 35°24' E 139°41'4 4.1
2014-Oct-16 07:33N 35°28' E 139°40'0 0.0
2014-Oct-16 06:33N 35°28' E 139°40'4 3.7
2014-Oct-16 05:33N 35°30' E 139°44'2 2.4
2014-Oct-16 04:33N 35°29' E 139°47'0 0.0
2014-Oct-16 03:33N 35°29' E 139°47'6 5.6
2014-Oct-16 02:32N 35°29' E 139°54'3 3.5
2014-Oct-16 01:33N 35°28' E 139°58'  
Track history (hours):
 
Tides and Currents Weather Stations Pressure Air Temp Water Temp Dewpoint Dewpoint Depression Visibility Wind Speed Wind Dir Waves Ship Positions

Sakura

Last reported at 2014-Oct-25 08:22 UTC. Time now 2014-Oct-26 02:00 UTC.
Position N 35°27' E 139°39'.

Length 32 m; draft 3.6 m.

Type: Tug. MMSI: 431101178.

Date/timePositionNaut miles runAvg speedWind from/ knotsBaromVisibWave heightAir tempDewpointWater temp
2014-Oct-25 08:22N 35°27' E 139°39'2 2.6
2014-Oct-25 07:33N 35°26' E 139°41'3 2.7
2014-Oct-25 06:33N 35°29' E 139°40'2 1.9
2014-Oct-25 05:33N 35°27' E 139°39'0 0.0
2014-Oct-25 04:33N 35°27' E 139°39'2 2.4
2014-Oct-25 03:33N 35°27' E 139°42'5 4.9
2014-Oct-25 02:33N 35°29' E 139°47'1 1.4
2014-Oct-25 01:33N 35°28' E 139°47'3 3.5
2014-Oct-25 00:34N 35°27' E 139°42'0 0.0
2014-Oct-24 23:34N 35°27' E 139°42'2 1.8
2014-Oct-24 22:33N 35°27' E 139°40'1 1.3
2014-Oct-24 21:33N 35°27' E 139°39'0 0.0
2014-Oct-24 20:33N 35°27' E 139°39'1 0.1
2014-Oct-24 11:33N 35°28' E 139°39'6 6.2
2014-Oct-24 10:32N 35°30' E 139°46'3 3.1
2014-Oct-24 09:33N 35°29' E 139°43'0 0.4
2014-Oct-24 08:33N 35°29' E 139°43'0 0.0
2014-Oct-24 07:33N 35°29' E 139°43'3 2.8
2014-Oct-24 06:33N 35°28' E 139°41'0 0.0
2014-Oct-24 05:33N 35°28' E 139°41'0 0.0
2014-Oct-24 04:33N 35°28' E 139°41'0 0.0
2014-Oct-24 03:33N 35°28' E 139°41'0 0.0
2014-Oct-24 02:33N 35°28' E 139°41'0 0.0
2014-Oct-24 01:33N 35°28' E 139°41'0 0.0
2014-Oct-24 00:33N 35°28' E 139°41'1 0.7
2014-Oct-23 23:33N 35°27' E 139°40'1 1.5
2014-Oct-23 22:33N 35°28' E 139°41'2 1.8
2014-Oct-23 21:33N 35°27' E 139°43'3 3.5
2014-Oct-23 20:33N 35°27' E 139°39'0 0.0
2014-Oct-23 07:34N 35°27' E 139°39'0 0.0
2014-Oct-23 06:34N 35°27' E 139°39'2 2.0
2014-Oct-23 05:34N 35°27' E 139°41'2 2.0
2014-Oct-23 04:33N 35°27' E 139°39'0 0.0
2014-Oct-23 03:33N 35°27' E 139°39'0 0.0
2014-Oct-23 02:33N 35°27' E 139°39'0 0.0
2014-Oct-23 01:33N 35°27' E 139°39'0 0.0
2014-Oct-23 00:33N 35°27' E 139°39'0 0.0
2014-Oct-22 23:34N 35°27' E 139°39'0 0.0
2014-Oct-22 22:34N 35°27' E 139°39'0 0.0
2014-Oct-21 23:29N 35°27' E 139°39'2 2.5
2014-Oct-21 22:33N 35°28' E 139°41'2 1.7
2014-Oct-21 21:34N 35°27' E 139°43'0 0.0
2014-Oct-21 20:34N 35°27' E 139°43'0 0.0
2014-Oct-21 19:34N 35°27' E 139°43'2 1.6
2014-Oct-21 18:33N 35°26' E 139°41'1 1.3
2014-Oct-21 17:33N 35°27' E 139°42'0 0.0
2014-Oct-21 16:33N 35°27' E 139°42'0 0.0
2014-Oct-21 15:33N 35°27' E 139°42'0 0.0
2014-Oct-21 14:33N 35°27' E 139°42'0 0.0
2014-Oct-21 13:33N 35°27' E 139°42'0 0.0
2014-Oct-21 12:33N 35°27' E 139°42'1 1.1
2014-Oct-21 11:33N 35°26' E 139°41'0 0.5
2014-Oct-21 10:33N 35°27' E 139°41'2 1.5
2014-Oct-21 09:34N 35°27' E 139°39'2 2.4
2014-Oct-21 08:34N 35°26' E 139°42'1 1.0
2014-Oct-21 07:34N 35°26' E 139°41'2 1.5
2014-Oct-21 06:33N 35°27' E 139°41'1 1.2
2014-Oct-21 05:33N 35°27' E 139°42'3 3.3
2014-Oct-21 04:33N 35°24' E 139°42'2 1.8
2014-Oct-21 03:33N 35°24' E 139°39'3 3.0
2014-Oct-21 02:33N 35°27' E 139°39'0 0.0
2014-Oct-21 01:33N 35°27' E 139°39'0 0.0
2014-Oct-21 00:33N 35°27' E 139°39'0 0.0
2014-Oct-20 23:33N 35°27' E 139°39'0 0.0
2014-Oct-20 22:33N 35°27' E 139°39'0 0.0
2014-Oct-20 21:33N 35°27' E 139°39'0 0.0
2014-Oct-20 07:11N 35°27' E 139°39'0 0.0
2014-Oct-20 06:33N 35°27' E 139°39'1 1.3
2014-Oct-20 05:33N 35°27' E 139°40'1 1.3
2014-Oct-20 04:33N 35°27' E 139°39'0 0.0
2014-Oct-20 03:33N 35°27' E 139°39'1 0.7
2014-Oct-20 02:33N 35°27' E 139°39'7 6.8
2014-Oct-20 01:33N 35°31' E 139°46'1 1.2
2014-Oct-20 00:33N 35°30' E 139°47'1 1.0
2014-Oct-19 23:33N 35°29' E 139°47'1 0.6
2014-Oct-19 22:33N 35°30' E 139°46'2 1.8
2014-Oct-19 21:33N 35°28' E 139°46'6 5.9
2014-Oct-19 20:33N 35°27' E 139°39'0 0.0
2014-Oct-19 07:33N 35°27' E 139°39'0 0.0
2014-Oct-19 06:33N 35°27' E 139°39'0 0.0
2014-Oct-19 05:34N 35°27' E 139°39'2 1.5
2014-Oct-19 04:34N 35°27' E 139°40'2 1.5
2014-Oct-19 03:34N 35°27' E 139°39'0 0.0
2014-Oct-19 02:34N 35°27' E 139°39'0 0.0
2014-Oct-19 01:34N 35°27' E 139°39'0 0.0
2014-Oct-19 00:34N 35°27' E 139°39'2 1.6
2014-Oct-18 23:34N 35°27' E 139°40'2 1.9
2014-Oct-18 22:34N 35°26' E 139°43'2 2.3
2014-Oct-18 21:34N 35°28' E 139°41'1 0.6
2014-Oct-18 20:34N 35°27' E 139°41'2 1.9
2014-Oct-18 19:34N 35°27' E 139°39'0 0.0
2014-Oct-18 08:22N 35°27' E 139°39'2 2.0
2014-Oct-18 07:33N 35°26' E 139°40'1 1.1
2014-Oct-18 06:34N 35°28' E 139°40'0 0.0
2014-Oct-18 05:34N 35°28' E 139°40'0 0.0
2014-Oct-18 04:34N 35°28' E 139°40'0 0.0
2014-Oct-18 03:33N 35°28' E 139°40'2 1.5
2014-Oct-18 02:34N 35°26' E 139°41'2 1.5
2014-Oct-18 01:34N 35°28' E 139°40'0 0.0
2014-Oct-18 00:34N 35°28' E 139°40'0 0.0
2014-Oct-17 23:33N 35°28' E 139°40'2 1.5
2014-Oct-17 22:34N 35°27' E 139°42'3 2.8
2014-Oct-17 21:34N 35°27' E 139°39'3 0.2
2014-Oct-17 07:33N 35°27' E 139°42'1 0.9
2014-Oct-17 06:33N 35°26' E 139°41'1 1.3
2014-Oct-17 05:33N 35°27' E 139°42'1 1.1
2014-Oct-17 04:33N 35°26' E 139°41'2 0.6
2014-Oct-17 01:14N 35°27' E 139°39'3 3.8
2014-Oct-17 00:33N 35°28' E 139°41'3 2.6
2014-Oct-16 23:33N 35°30' E 139°44'3 3.3
2014-Oct-16 22:33N 35°27' E 139°43'3 3.3
2014-Oct-16 21:33N 35°27' E 139°39'0 0.0
2014-Oct-16 20:33N 35°27' E 139°39'3 0.3
2014-Oct-16 12:33N 35°26' E 139°41'1 0.7
2014-Oct-16 11:33N 35°26' E 139°42'0 0.2
2014-Oct-16 10:34N 35°26' E 139°42'2 1.7
2014-Oct-16 09:33N 35°24' E 139°41'1 0.5
2014-Oct-16 08:34N 35°24' E 139°41'4 4.1
2014-Oct-16 07:33N 35°28' E 139°40'0 0.0
2014-Oct-16 06:33N 35°28' E 139°40'4 3.7
2014-Oct-16 05:33N 35°30' E 139°44'2 2.4
2014-Oct-16 04:33N 35°29' E 139°47'0 0.0
2014-Oct-16 03:33N 35°29' E 139°47'6 5.6
2014-Oct-16 02:32N 35°29' E 139°54'3 3.5
2014-Oct-16 01:33N 35°28' E 139°58'  

Dump ship's entire track history